Location: Clanezzo
(45.7500°N, 9.6000°E)
Time: 04:16:50
(UTC+00:00)

Cosmos 962 Rocket - Pass Details

Date: 12 May 2021
Orbit: 950 x 1000 km, 82.9° (Epoch: 18 June)

Event Time Altitude Azimuth Distance (km) Brightness Sun altitude
Rises 21:37:34 0° 351° (N) 3,637 8.8 -22.0°
Reaches altitude 10° 21:40:04 10° 352° (N) 2,686 7.8 -22.1°
Maximum altitude 21:46:13 87° 81° (E) 959 4.4 -22.6°
Enters shadow 21:48:11 46° 169° (S) 1,251 4.6 -22.7°
